Year,Month,Day,Hour,Minute,Value (Times are PST for temperature in C)
2016,04,29,00,00,11.30
2016,04,29,00,01,11.30
2016,04,29,00,02,11.30
2016,04,29,00,03,11.30
2016,04,29,00,04,11.30
2016,04,29,00,05,11.30
2016,04,29,00,06,11.30
2016,04,29,00,07,11.30
2016,04,29,00,08,11.20
2016,04,29,00,09,11.20
2016,04,29,00,10,11.20
2016,04,29,00,11,11.20
2016,04,29,00,12,11.20
2016,04,29,00,13,11.20
2016,04,29,00,14,11.10
2016,04,29,00,15,11.10
2016,04,29,00,16,11.10
2016,04,29,00,17,11.10
2016,04,29,00,18,11.10
2016,04,29,00,19,11.10
2016,04,29,00,20,11.10
2016,04,29,00,21,11.10
2016,04,29,00,22,11.00
2016,04,29,00,23,11.00
2016,04,29,00,24,11.00
2016,04,29,00,25,11.00
2016,04,29,00,26,11.10
2016,04,29,00,27,11.00
2016,04,29,00,28,11.10
2016,04,29,00,29,11.10
2016,04,29,00,30,11.00
2016,04,29,00,31,11.00
2016,04,29,00,32,11.00
2016,04,29,00,33,11.10
2016,04,29,00,34,11.10
2016,04,29,00,35,11.10
2016,04,29,00,36,11.10
2016,04,29,00,37,11.10
2016,04,29,00,38,11.10
2016,04,29,00,39,11.10
2016,04,29,00,40,11.10
2016,04,29,00,41,11.00
2016,04,29,00,42,11.00
2016,04,29,00,43,11.10
2016,04,29,00,44,11.00
2016,04,29,00,45,11.00
2016,04,29,00,46,11.00
2016,04,29,00,47,11.00
2016,04,29,00,48,11.00
2016,04,29,00,49,11.00
2016,04,29,00,50,11.00
2016,04,29,00,51,11.00
2016,04,29,00,52,10.90
2016,04,29,00,53,10.90
2016,04,29,00,54,10.90
2016,04,29,00,55,10.90
2016,04,29,00,56,10.90
2016,04,29,00,57,10.90
2016,04,29,00,58,10.90
2016,04,29,00,59,10.90
2016,04,29,01,00,10.90
2016,04,29,01,01,10.90
2016,04,29,01,02,10.90
2016,04,29,01,03,10.90
2016,04,29,01,04,10.90
2016,04,29,01,05,10.90
2016,04,29,01,06,10.80
2016,04,29,01,07,10.80
2016,04,29,01,08,10.80
2016,04,29,01,09,10.80
2016,04,29,01,10,10.80
2016,04,29,01,11,10.80
2016,04,29,01,12,10.80
2016,04,29,01,13,10.80
2016,04,29,01,14,10.70
2016,04,29,01,15,10.70
2016,04,29,01,16,10.70
2016,04,29,01,17,10.70
2016,04,29,01,18,10.70
2016,04,29,01,19,10.70
2016,04,29,01,20,10.70
2016,04,29,01,21,10.70
2016,04,29,01,22,10.70
2016,04,29,01,23,10.70
2016,04,29,01,24,10.70
2016,04,29,01,25,10.70
2016,04,29,01,26,10.70
2016,04,29,01,27,10.60
2016,04,29,01,28,10.60
2016,04,29,01,29,10.60
2016,04,29,01,30,10.60
2016,04,29,01,31,10.60
2016,04,29,01,32,10.60
2016,04,29,01,33,10.60
2016,04,29,01,34,10.60
2016,04,29,01,35,10.60
2016,04,29,01,36,10.60
2016,04,29,01,37,10.60
2016,04,29,01,38,10.50
2016,04,29,01,39,10.50
2016,04,29,01,40,10.50
2016,04,29,01,41,10.50
2016,04,29,01,42,10.50
2016,04,29,01,43,10.50
2016,04,29,01,44,10.50
2016,04,29,01,45,10.50
2016,04,29,01,46,10.50
2016,04,29,01,47,10.40
2016,04,29,01,48,10.40
2016,04,29,01,49,10.40
2016,04,29,01,50,10.40
2016,04,29,01,51,10.40
2016,04,29,01,52,10.40
2016,04,29,01,53,10.40
2016,04,29,01,54,10.40
2016,04,29,01,55,10.40
2016,04,29,01,56,10.40
2016,04,29,01,57,10.40
2016,04,29,01,58,10.40
2016,04,29,01,59,10.40
2016,04,29,02,00,10.40
2016,04,29,02,01,10.40
2016,04,29,02,02,10.40
2016,04,29,02,03,10.40
2016,04,29,02,04,10.40
2016,04,29,02,05,10.30
2016,04,29,02,06,10.40
2016,04,29,02,07,10.30
2016,04,29,02,08,10.30
2016,04,29,02,09,10.30
2016,04,29,02,10,10.30
2016,04,29,02,11,10.30
2016,04,29,02,12,10.30
2016,04,29,02,13,10.30
2016,04,29,02,14,10.30
2016,04,29,02,15,10.30
2016,04,29,02,16,10.30
2016,04,29,02,17,10.30
2016,04,29,02,18,10.30
2016,04,29,02,19,10.30
2016,04,29,02,20,10.30
2016,04,29,02,21,10.30
2016,04,29,02,22,10.30
2016,04,29,02,23,10.40
2016,04,29,02,24,10.30
2016,04,29,02,25,10.30
2016,04,29,02,26,10.30
2016,04,29,02,27,10.30
2016,04,29,02,28,10.30
2016,04,29,02,29,10.30
2016,04,29,02,30,10.30
2016,04,29,02,31,10.30
2016,04,29,02,32,10.30
2016,04,29,02,33,10.30
2016,04,29,02,34,10.30
2016,04,29,02,35,10.30
2016,04,29,02,36,10.30
2016,04,29,02,37,10.30
2016,04,29,02,38,10.30
2016,04,29,02,39,10.30
2016,04,29,02,40,10.30
2016,04,29,02,41,10.30
2016,04,29,02,42,10.30
2016,04,29,02,43,10.30
2016,04,29,02,44,10.30
2016,04,29,02,45,10.30
2016,04,29,02,46,10.30
2016,04,29,02,47,10.30
2016,04,29,02,48,10.30
2016,04,29,02,49,10.30
2016,04,29,02,50,10.30
2016,04,29,02,51,10.30
2016,04,29,02,52,10.30
2016,04,29,02,53,10.30
2016,04,29,02,54,10.30
2016,04,29,02,55,10.30
2016,04,29,02,56,10.30
2016,04,29,02,57,10.30
2016,04,29,02,58,10.30
2016,04,29,02,59,10.30
2016,04,29,03,00,10.30
2016,04,29,03,01,10.30
2016,04,29,03,02,10.30
2016,04,29,03,03,10.30
2016,04,29,03,04,10.30
2016,04,29,03,05,10.30
2016,04,29,03,06,10.30
2016,04,29,03,07,10.30
2016,04,29,03,08,10.30
2016,04,29,03,09,10.30
2016,04,29,03,10,10.30
2016,04,29,03,11,10.30
2016,04,29,03,12,10.30
2016,04,29,03,13,10.30
2016,04,29,03,14,10.40
2016,04,29,03,15,10.30
2016,04,29,03,16,10.40
2016,04,29,03,17,10.40
2016,04,29,03,18,10.40
2016,04,29,03,19,10.40
2016,04,29,03,20,10.40
2016,04,29,03,21,10.40
2016,04,29,03,22,10.40
2016,04,29,03,23,10.40
2016,04,29,03,24,10.40
2016,04,29,03,25,10.40
2016,04,29,03,26,10.40
2016,04,29,03,27,10.40
2016,04,29,03,28,10.40
2016,04,29,03,29,10.40
2016,04,29,03,30,10.40
2016,04,29,03,31,10.40
2016,04,29,03,32,10.40
2016,04,29,03,33,10.40
2016,04,29,03,34,10.40
2016,04,29,03,35,10.40
2016,04,29,03,36,10.40
2016,04,29,03,37,10.40
2016,04,29,03,38,10.40
2016,04,29,03,39,10.40
2016,04,29,03,40,10.40
2016,04,29,03,41,10.40
2016,04,29,03,42,10.40
2016,04,29,03,43,10.40
2016,04,29,03,44,10.40
2016,04,29,03,45,10.40
2016,04,29,03,46,10.40
2016,04,29,03,47,10.40
2016,04,29,03,48,10.40
2016,04,29,03,49,10.40
2016,04,29,03,50,10.40
2016,04,29,03,51,10.40
2016,04,29,03,52,10.40
2016,04,29,03,53,10.40
2016,04,29,03,54,10.40
2016,04,29,03,55,10.40
2016,04,29,03,56,10.40
2016,04,29,03,57,10.40
2016,04,29,03,58,10.40
2016,04,29,03,59,10.40
2016,04,29,04,00,10.40
2016,04,29,04,01,10.40
2016,04,29,04,02,10.40
2016,04,29,04,03,10.40
2016,04,29,04,04,10.40
2016,04,29,04,05,10.40
2016,04,29,04,06,10.40
2016,04,29,04,07,10.40
2016,04,29,04,08,10.40
2016,04,29,04,09,10.40
2016,04,29,04,10,10.40
2016,04,29,04,11,10.40
2016,04,29,04,12,10.40
2016,04,29,04,13,10.40
2016,04,29,04,14,10.40
2016,04,29,04,15,10.40
2016,04,29,04,16,10.40
2016,04,29,04,17,10.40
2016,04,29,04,18,10.40
2016,04,29,04,19,10.40
2016,04,29,04,20,10.40
2016,04,29,04,21,10.40
2016,04,29,04,22,10.40
2016,04,29,04,23,10.40
2016,04,29,04,24,10.40
2016,04,29,04,25,10.40
2016,04,29,04,26,10.40
2016,04,29,04,27,10.40
2016,04,29,04,28,10.40
2016,04,29,04,29,10.40
2016,04,29,04,30,10.40
2016,04,29,04,31,10.40
2016,04,29,04,32,10.40
2016,04,29,04,33,10.40
2016,04,29,04,34,10.40
2016,04,29,04,35,10.40
2016,04,29,04,36,10.40
2016,04,29,04,37,10.40
2016,04,29,04,38,10.40
2016,04,29,04,39,10.30
2016,04,29,04,40,10.30
2016,04,29,04,41,10.30
2016,04,29,04,42,10.30
2016,04,29,04,43,10.30
2016,04,29,04,44,10.30
2016,04,29,04,45,10.30
2016,04,29,04,46,10.30
2016,04,29,04,47,10.30
2016,04,29,04,48,10.30
2016,04,29,04,49,10.30
2016,04,29,04,50,10.30
2016,04,29,04,51,10.30
2016,04,29,04,52,10.30
2016,04,29,04,53,10.30
2016,04,29,04,54,10.30
2016,04,29,04,55,10.30
2016,04,29,04,56,10.30
2016,04,29,04,57,10.30
2016,04,29,04,58,10.30
2016,04,29,04,59,10.30
2016,04,29,05,00,10.30
2016,04,29,05,01,10.30
2016,04,29,05,02,10.30
2016,04,29,05,03,10.30
2016,04,29,05,04,10.30
2016,04,29,05,05,10.30
2016,04,29,05,06,10.30
2016,04,29,05,07,10.30
2016,04,29,05,08,10.30
2016,04,29,05,09,10.30
2016,04,29,05,10,10.30
2016,04,29,05,11,10.30
2016,04,29,05,12,10.30
2016,04,29,05,13,10.30
2016,04,29,05,14,10.30
2016,04,29,05,15,10.30
2016,04,29,05,16,10.30
2016,04,29,05,17,10.30
2016,04,29,05,18,10.30
2016,04,29,05,19,10.30
2016,04,29,05,20,10.30
2016,04,29,05,21,10.30
2016,04,29,05,22,10.30
2016,04,29,05,23,10.30
2016,04,29,05,24,10.30
2016,04,29,05,25,10.30
2016,04,29,05,26,10.30
2016,04,29,05,27,10.30
2016,04,29,05,28,10.30
2016,04,29,05,29,10.30
2016,04,29,05,30,10.30
2016,04,29,05,31,10.30
2016,04,29,05,32,10.30
2016,04,29,05,33,10.30
2016,04,29,05,34,10.30
2016,04,29,05,35,10.30
2016,04,29,05,36,10.20
2016,04,29,05,37,10.20
2016,04,29,05,38,10.20
2016,04,29,05,39,10.20
2016,04,29,05,40,10.20
2016,04,29,05,41,10.20
2016,04,29,05,42,10.20
2016,04,29,05,43,10.20
2016,04,29,05,44,10.20
2016,04,29,05,45,10.20
2016,04,29,05,46,10.20
2016,04,29,05,47,10.20
2016,04,29,05,48,10.20
2016,04,29,05,49,10.20
2016,04,29,05,50,10.20
2016,04,29,05,51,10.20
2016,04,29,05,52,10.20
2016,04,29,05,53,10.20
2016,04,29,05,54,10.20
2016,04,29,05,55,10.20
2016,04,29,05,56,10.20
2016,04,29,05,57,10.20
2016,04,29,05,58,10.20
2016,04,29,05,59,10.20
2016,04,29,06,00,10.10
2016,04,29,06,01,10.10
2016,04,29,06,02,10.20
2016,04,29,06,03,10.20
2016,04,29,06,04,10.20
2016,04,29,06,05,10.20
2016,04,29,06,06,10.20
2016,04,29,06,07,10.20
2016,04,29,06,08,10.20
2016,04,29,06,09,10.20
2016,04,29,06,10,10.20
2016,04,29,06,11,10.20
2016,04,29,06,12,10.20
2016,04,29,06,13,10.20
2016,04,29,06,14,10.20
2016,04,29,06,15,10.20
2016,04,29,06,16,10.20
2016,04,29,06,17,10.20
2016,04,29,06,18,10.20
2016,04,29,06,19,10.20
2016,04,29,06,20,10.20
2016,04,29,06,21,10.20
2016,04,29,06,22,10.20
2016,04,29,06,23,10.20
2016,04,29,06,24,10.20
2016,04,29,06,25,10.20
2016,04,29,06,26,10.20
2016,04,29,06,27,10.20
2016,04,29,06,28,10.20
2016,04,29,06,29,10.20
2016,04,29,06,30,10.20
2016,04,29,06,31,10.20
2016,04,29,06,32,10.20
2016,04,29,06,33,10.20
2016,04,29,06,34,10.30
2016,04,29,06,35,10.30
2016,04,29,06,36,10.30
2016,04,29,06,37,10.30
2016,04,29,06,38,10.30
2016,04,29,06,39,10.30
2016,04,29,06,40,10.30
2016,04,29,06,41,10.30
2016,04,29,06,42,10.30
2016,04,29,06,43,10.30
2016,04,29,06,44,10.30
2016,04,29,06,45,10.30
2016,04,29,06,46,10.30
2016,04,29,06,47,10.30
2016,04,29,06,48,10.30
2016,04,29,06,49,10.30
2016,04,29,06,50,10.30
2016,04,29,06,51,10.30
2016,04,29,06,52,10.30
2016,04,29,06,53,10.40
2016,04,29,06,54,10.40
2016,04,29,06,55,10.30
2016,04,29,06,56,10.40
2016,04,29,06,57,10.40
2016,04,29,06,58,10.40
2016,04,29,06,59,10.40
2016,04,29,07,00,10.40
2016,04,29,07,01,10.40
2016,04,29,07,02,10.40
2016,04,29,07,03,10.40
2016,04,29,07,04,10.40
2016,04,29,07,05,10.40
2016,04,29,07,06,10.40
2016,04,29,07,07,10.40
2016,04,29,07,08,10.40
2016,04,29,07,09,10.40
2016,04,29,07,10,10.40
2016,04,29,07,11,10.40
2016,04,29,07,12,10.40
2016,04,29,07,13,10.40
2016,04,29,07,14,10.40
2016,04,29,07,15,10.40
2016,04,29,07,16,10.40
2016,04,29,07,17,10.40
2016,04,29,07,18,10.40
2016,04,29,07,19,10.40
2016,04,29,07,20,10.50
2016,04,29,07,21,10.50
2016,04,29,07,22,10.50
2016,04,29,07,23,10.50
2016,04,29,07,24,10.50
2016,04,29,07,25,10.50
2016,04,29,07,26,10.50
2016,04,29,07,27,10.50
2016,04,29,07,28,10.50
2016,04,29,07,29,10.50
2016,04,29,07,30,10.50
2016,04,29,07,31,10.50
2016,04,29,07,32,10.50
2016,04,29,07,33,10.50
2016,04,29,07,34,10.50
2016,04,29,07,35,10.50
2016,04,29,07,36,10.50
2016,04,29,07,37,10.50
2016,04,29,07,38,10.50
2016,04,29,07,39,10.50
2016,04,29,07,40,10.50
2016,04,29,07,41,10.50
2016,04,29,07,42,10.50
2016,04,29,07,43,10.50
2016,04,29,07,44,10.50
2016,04,29,07,45,10.50
2016,04,29,07,46,10.50
2016,04,29,07,47,10.50
2016,04,29,07,48,10.50
2016,04,29,07,49,10.50
2016,04,29,07,50,10.60
2016,04,29,07,51,10.60
2016,04,29,07,52,10.60
2016,04,29,07,53,10.60
2016,04,29,07,54,10.60
2016,04,29,07,55,10.60
2016,04,29,07,56,10.60
2016,04,29,07,57,10.60
2016,04,29,07,58,10.60
2016,04,29,07,59,10.60
2016,04,29,08,00,10.60
2016,04,29,08,01,10.60
2016,04,29,08,02,10.60
2016,04,29,08,03,10.60
2016,04,29,08,04,10.60
2016,04,29,08,05,10.70
2016,04,29,08,06,10.70
2016,04,29,08,07,10.70
2016,04,29,08,08,10.70
2016,04,29,08,09,10.70
2016,04,29,08,10,10.70
2016,04,29,08,11,10.70
2016,04,29,08,12,10.70
2016,04,29,08,13,10.70
2016,04,29,08,14,10.70
2016,04,29,08,15,10.70
2016,04,29,08,16,10.70
2016,04,29,08,17,10.70
2016,04,29,08,18,10.70
2016,04,29,08,19,10.70
2016,04,29,08,20,10.70
2016,04,29,08,21,10.70
2016,04,29,08,22,10.80
2016,04,29,08,23,10.80
2016,04,29,08,24,10.80
2016,04,29,08,25,10.80
2016,04,29,08,26,10.80
2016,04,29,08,27,10.80
2016,04,29,08,28,10.80
2016,04,29,08,29,10.80
2016,04,29,08,30,10.80
2016,04,29,08,31,10.80
2016,04,29,08,32,10.80
2016,04,29,08,33,10.80
2016,04,29,08,34,10.90
2016,04,29,08,35,10.90
2016,04,29,08,36,10.90
2016,04,29,08,37,10.90
2016,04,29,08,38,10.90
2016,04,29,08,39,10.90
2016,04,29,08,40,10.90
2016,04,29,08,41,10.90
2016,04,29,08,42,11.00
2016,04,29,08,43,11.00
2016,04,29,08,44,11.10
2016,04,29,08,45,11.10
2016,04,29,08,46,11.10
2016,04,29,08,47,11.10
2016,04,29,08,48,11.20
2016,04,29,08,49,11.20
2016,04,29,08,50,11.20
2016,04,29,08,51,11.20
2016,04,29,08,52,11.30
2016,04,29,08,53,11.30
2016,04,29,08,54,11.30
2016,04,29,08,55,11.30
2016,04,29,08,56,11.30
2016,04,29,08,57,11.30
2016,04,29,08,58,11.40
2016,04,29,08,59,11.40
2016,04,29,09,00,11.40
2016,04,29,09,01,11.40
2016,04,29,09,02,11.40
2016,04,29,09,03,11.40
2016,04,29,09,04,11.40
2016,04,29,09,05,11.40
2016,04,29,09,06,11.40
2016,04,29,09,07,11.50
2016,04,29,09,08,11.50
2016,04,29,09,09,11.60
2016,04,29,09,10,11.60
2016,04,29,09,11,11.60
2016,04,29,09,12,11.60
2016,04,29,09,13,11.60
2016,04,29,09,14,11.70
2016,04,29,09,15,11.70
2016,04,29,09,16,11.70
2016,04,29,09,17,11.70
2016,04,29,09,18,11.70
2016,04,29,09,19,11.70
2016,04,29,09,20,11.70
2016,04,29,09,21,11.80
2016,04,29,09,22,11.80
2016,04,29,09,23,11.80
2016,04,29,09,24,11.80
2016,04,29,09,25,11.80
2016,04,29,09,26,11.80
2016,04,29,09,27,11.80
2016,04,29,09,28,11.80
2016,04,29,09,29,11.80
2016,04,29,09,30,11.90
2016,04,29,09,31,11.80
2016,04,29,09,32,11.80
2016,04,29,09,33,11.80
2016,04,29,09,34,11.80
2016,04,29,09,35,11.80
2016,04,29,09,36,11.70
2016,04,29,09,37,11.70
2016,04,29,09,38,11.60
2016,04,29,09,39,11.60
2016,04,29,09,40,11.60
2016,04,29,09,41,11.60
2016,04,29,09,42,11.60
2016,04,29,09,43,11.60
2016,04,29,09,44,11.60
2016,04,29,09,45,11.70
2016,04,29,09,46,11.70
2016,04,29,09,47,11.70
2016,04,29,09,48,11.70
2016,04,29,09,49,11.70
2016,04,29,09,50,11.70
2016,04,29,09,51,11.70
2016,04,29,09,52,11.70
2016,04,29,09,53,11.70
2016,04,29,09,54,11.70
2016,04,29,09,55,11.70
2016,04,29,09,56,11.70
2016,04,29,09,57,11.70
2016,04,29,09,58,11.70
2016,04,29,09,59,11.70
2016,04,29,10,00,11.70
2016,04,29,10,01,11.80
2016,04,29,10,02,11.80
2016,04,29,10,03,11.80
2016,04,29,10,04,11.80
2016,04,29,10,05,11.80
2016,04,29,10,06,11.80
2016,04,29,10,07,11.80
2016,04,29,10,08,11.80
2016,04,29,10,09,11.80
2016,04,29,10,10,11.80
2016,04,29,10,11,11.90
2016,04,29,10,12,11.90
2016,04,29,10,13,11.90
2016,04,29,10,14,12.00
2016,04,29,10,15,12.00
2016,04,29,10,16,12.00
2016,04,29,10,17,12.00
2016,04,29,10,18,12.10
2016,04,29,10,19,12.10
2016,04,29,10,20,12.20
2016,04,29,10,21,12.30
2016,04,29,10,22,12.30
2016,04,29,10,23,12.40
2016,04,29,10,24,12.40
2016,04,29,10,25,12.40
2016,04,29,10,26,12.50
2016,04,29,10,27,12.50
2016,04,29,10,28,12.60
2016,04,29,10,29,12.70
2016,04,29,10,30,12.80
2016,04,29,10,31,12.90
2016,04,29,10,32,13.00
2016,04,29,10,33,13.00
2016,04,29,10,34,13.10
2016,04,29,10,35,13.10
2016,04,29,10,36,13.10
2016,04,29,10,37,13.10
2016,04,29,10,38,13.10
2016,04,29,10,39,13.10
2016,04,29,10,40,13.10
2016,04,29,10,41,13.10
2016,04,29,10,42,13.10
2016,04,29,10,43,13.10
2016,04,29,10,44,13.20
2016,04,29,10,45,13.20
2016,04,29,10,46,13.20
2016,04,29,10,47,13.20
2016,04,29,10,48,13.30
2016,04,29,10,49,13.30
2016,04,29,10,50,13.40
2016,04,29,10,51,13.40
2016,04,29,10,52,13.50
2016,04,29,10,53,13.50
2016,04,29,10,54,13.60
2016,04,29,10,55,13.60
2016,04,29,10,56,13.60
2016,04,29,10,57,13.70
2016,04,29,10,58,13.70
2016,04,29,10,59,13.80
2016,04,29,11,00,13.90
2016,04,29,11,01,13.90
2016,04,29,11,02,14.00
2016,04,29,11,03,14.10
2016,04,29,11,04,14.10
2016,04,29,11,05,14.00
2016,04,29,11,06,14.00
2016,04,29,11,07,13.80
2016,04,29,11,08,13.70
2016,04,29,11,09,13.60
2016,04,29,11,10,13.50
2016,04,29,11,11,13.50
2016,04,29,11,12,13.40
2016,04,29,11,13,13.40
2016,04,29,11,14,13.40
2016,04,29,11,15,13.40
2016,04,29,11,16,13.40
2016,04,29,11,17,13.40
2016,04,29,11,18,13.40
2016,04,29,11,19,13.40
2016,04,29,11,20,13.50
2016,04,29,11,21,13.50
2016,04,29,11,22,13.60
2016,04,29,11,23,13.60
2016,04,29,11,24,13.60
2016,04,29,11,25,13.70
2016,04,29,11,26,13.80
2016,04,29,11,27,13.80
2016,04,29,11,28,13.80
2016,04,29,11,29,13.80
2016,04,29,11,30,13.80
2016,04,29,11,31,13.80
2016,04,29,11,32,13.80
2016,04,29,11,33,13.80
2016,04,29,11,34,13.80
2016,04,29,11,35,13.90
2016,04,29,11,36,13.90
2016,04,29,11,37,13.90
2016,04,29,11,38,14.00
2016,04,29,11,39,13.90
2016,04,29,11,40,13.90
2016,04,29,11,41,13.90
2016,04,29,11,42,13.80
2016,04,29,11,43,13.70
2016,04,29,11,44,13.70
2016,04,29,11,45,13.60
2016,04,29,11,46,13.60
2016,04,29,11,47,13.60
2016,04,29,11,48,13.60
2016,04,29,11,49,13.60
2016,04,29,11,50,13.60
2016,04,29,11,51,13.60
2016,04,29,11,52,13.70
2016,04,29,11,53,13.70
2016,04,29,11,54,13.70
2016,04,29,11,55,13.80
2016,04,29,11,56,13.80
2016,04,29,11,57,13.80
2016,04,29,11,58,13.80
2016,04,29,11,59,13.80
2016,04,29,12,00,13.80
2016,04,29,12,01,13.90
2016,04,29,12,02,14.00
2016,04,29,12,03,14.10
2016,04,29,12,04,14.20
2016,04,29,12,05,14.30
2016,04,29,12,06,14.40
2016,04,29,12,07,14.40
2016,04,29,12,08,14.40
2016,04,29,12,09,14.40
2016,04,29,12,10,14.40
2016,04,29,12,11,14.50
2016,04,29,12,12,14.60
2016,04,29,12,13,14.60
2016,04,29,12,14,14.70
2016,04,29,12,15,14.70
2016,04,29,12,16,14.70
2016,04,29,12,17,14.70
2016,04,29,12,18,14.70
2016,04,29,12,19,14.70
2016,04,29,12,20,14.70
2016,04,29,12,21,14.70
2016,04,29,12,22,14.70
2016,04,29,12,23,14.70
2016,04,29,12,24,14.60
2016,04,29,12,25,14.60
2016,04,29,12,26,14.60
2016,04,29,12,27,14.60
2016,04,29,12,28,14.60
2016,04,29,12,29,14.50
2016,04,29,12,30,14.50
2016,04,29,12,31,14.50
2016,04,29,12,32,14.50
2016,04,29,12,33,14.50
2016,04,29,12,34,14.60
2016,04,29,12,35,14.60
2016,04,29,12,36,14.50
2016,04,29,12,37,14.50
2016,04,29,12,38,14.40
2016,04,29,12,39,14.30
2016,04,29,12,40,14.30
2016,04,29,12,41,14.30
2016,04,29,12,42,14.40
2016,04,29,12,43,14.40
2016,04,29,12,44,14.40
2016,04,29,12,45,14.40
2016,04,29,12,46,14.40
2016,04,29,12,47,14.50
2016,04,29,12,48,14.50
2016,04,29,12,49,14.50
2016,04,29,12,50,14.60
2016,04,29,12,51,14.60
2016,04,29,12,52,14.70
2016,04,29,12,53,14.70
2016,04,29,12,54,14.70
2016,04,29,12,55,14.70
2016,04,29,12,56,14.70
2016,04,29,12,57,14.70
2016,04,29,12,58,14.70
2016,04,29,12,59,14.80
2016,04,29,13,00,14.80
2016,04,29,13,01,14.90
2016,04,29,13,02,14.80
2016,04,29,13,03,14.80
2016,04,29,13,04,14.80
2016,04,29,13,05,14.80
2016,04,29,13,06,14.80
2016,04,29,13,07,14.80
2016,04,29,13,08,14.80
2016,04,29,13,09,14.70
2016,04,29,13,10,14.70
2016,04,29,13,11,14.70
2016,04,29,13,12,14.80
2016,04,29,13,13,14.80
2016,04,29,13,14,14.80
2016,04,29,13,15,14.80
2016,04,29,13,16,14.80
2016,04,29,13,17,14.90
2016,04,29,13,18,14.90
2016,04,29,13,19,14.90
2016,04,29,13,20,14.90
2016,04,29,13,21,15.00
2016,04,29,13,22,15.00
2016,04,29,13,23,15.00
2016,04,29,13,24,15.00
2016,04,29,13,25,14.90
2016,04,29,13,26,15.00
2016,04,29,13,27,15.00
2016,04,29,13,28,15.00
2016,04,29,13,29,15.10
2016,04,29,13,30,15.10
2016,04,29,13,31,15.20
2016,04,29,13,32,15.20
2016,04,29,13,33,15.30
2016,04,29,13,34,15.30
2016,04,29,13,35,15.30
2016,04,29,13,36,15.30
2016,04,29,13,37,15.30
2016,04,29,13,38,15.30
2016,04,29,13,39,15.30
2016,04,29,13,40,15.40
2016,04,29,13,41,15.40
2016,04,29,13,42,15.50
2016,04,29,13,43,15.60
2016,04,29,13,44,15.60
2016,04,29,13,45,15.50
2016,04,29,13,46,15.50
2016,04,29,13,47,15.50
2016,04,29,13,48,15.50
2016,04,29,13,49,15.50
2016,04,29,13,50,15.50
2016,04,29,13,51,15.50
2016,04,29,13,52,15.50
2016,04,29,13,53,15.50
2016,04,29,13,54,15.60
2016,04,29,13,55,15.60
2016,04,29,13,56,15.70
2016,04,29,13,57,15.70
2016,04,29,13,58,15.80
2016,04,29,13,59,15.80
2016,04,29,14,00,15.80
2016,04,29,14,01,15.80
2016,04,29,14,02,15.80
2016,04,29,14,03,15.80
2016,04,29,14,04,15.80
2016,04,29,14,05,15.90
2016,04,29,14,06,16.00
2016,04,29,14,07,16.00
2016,04,29,14,08,16.10
2016,04,29,14,09,16.10
2016,04,29,14,10,16.10
2016,04,29,14,11,16.20
2016,04,29,14,12,16.20
2016,04,29,14,13,16.20
2016,04,29,14,14,16.10
2016,04,29,14,15,16.00
2016,04,29,14,16,15.90
2016,04,29,14,17,15.80
2016,04,29,14,18,15.70
2016,04,29,14,19,15.60
2016,04,29,14,20,15.50
2016,04,29,14,21,15.40
2016,04,29,14,22,15.30
2016,04,29,14,23,15.20
2016,04,29,14,24,15.20
2016,04,29,14,25,15.10
2016,04,29,14,26,15.10
2016,04,29,14,27,15.20
2016,04,29,14,28,15.20
2016,04,29,14,29,15.30
2016,04,29,14,30,15.40
2016,04,29,14,31,15.40
2016,04,29,14,32,15.50
2016,04,29,14,33,15.60
2016,04,29,14,34,15.70
2016,04,29,14,35,15.70
2016,04,29,14,36,15.70
2016,04,29,14,37,15.80
2016,04,29,14,38,15.80
2016,04,29,14,39,15.80
2016,04,29,14,40,15.80
2016,04,29,14,41,15.90
2016,04,29,14,42,16.00
2016,04,29,14,43,16.00
2016,04,29,14,44,16.10
2016,04,29,14,45,16.10
2016,04,29,14,46,16.10
2016,04,29,14,47,16.10
2016,04,29,14,48,16.10
2016,04,29,14,49,16.10
2016,04,29,14,50,16.10
2016,04,29,14,51,16.20
2016,04,29,14,52,16.20
2016,04,29,14,53,16.30
2016,04,29,14,54,16.30
2016,04,29,14,55,16.30
2016,04,29,14,56,16.30
2016,04,29,14,57,16.30
2016,04,29,14,58,16.30
2016,04,29,14,59,16.30
2016,04,29,15,00,16.30
2016,04,29,15,01,16.30
2016,04,29,15,02,16.30
2016,04,29,15,03,16.30
2016,04,29,15,04,16.30
2016,04,29,15,05,16.30
2016,04,29,15,06,16.30
2016,04,29,15,07,16.30
2016,04,29,15,08,16.40
2016,04,29,15,09,16.30
2016,04,29,15,10,16.30
2016,04,29,15,11,16.30
2016,04,29,15,12,16.30
2016,04,29,15,13,16.30
2016,04,29,15,14,16.30
2016,04,29,15,15,16.20
2016,04,29,15,16,16.20
2016,04,29,15,17,16.20
2016,04,29,15,18,16.20
2016,04,29,15,19,16.20
2016,04,29,15,20,16.10
2016,04,29,15,21,16.10
2016,04,29,15,22,16.10
2016,04,29,15,23,16.10
2016,04,29,15,24,16.10
2016,04,29,15,25,16.10
2016,04,29,15,26,16.10
2016,04,29,15,27,16.10
2016,04,29,15,28,16.20
2016,04,29,15,29,16.20
2016,04,29,15,30,16.20
2016,04,29,15,31,16.30
2016,04,29,15,32,16.30
2016,04,29,15,33,16.30
2016,04,29,15,34,16.40
2016,04,29,15,35,16.40
2016,04,29,15,36,16.40
2016,04,29,15,37,16.50
2016,04,29,15,38,16.60
2016,04,29,15,39,16.60
2016,04,29,15,40,16.70
2016,04,29,15,41,16.70
2016,04,29,15,42,16.70
2016,04,29,15,43,16.70
2016,04,29,15,44,16.70
2016,04,29,15,45,16.70
2016,04,29,15,46,16.60
2016,04,29,15,47,16.60
2016,04,29,15,48,16.60
2016,04,29,15,49,16.60
2016,04,29,15,50,16.50
2016,04,29,15,51,16.50
2016,04,29,15,52,16.50
2016,04,29,15,53,16.50
2016,04,29,15,54,16.60
2016,04,29,15,55,16.60
2016,04,29,15,56,16.60
2016,04,29,15,57,16.70
2016,04,29,15,58,16.70
2016,04,29,15,59,16.70
2016,04,29,16,00,16.70
2016,04,29,16,01,16.70
2016,04,29,16,02,16.70
2016,04,29,16,03,16.70
2016,04,29,16,04,16.70
2016,04,29,16,05,16.70
2016,04,29,16,06,16.70
2016,04,29,16,07,16.70
2016,04,29,16,08,16.70
2016,04,29,16,09,16.70
2016,04,29,16,10,16.70
2016,04,29,16,11,16.70
2016,04,29,16,12,16.70
2016,04,29,16,13,16.70
2016,04,29,16,14,16.80
2016,04,29,16,15,16.80
2016,04,29,16,16,16.80
2016,04,29,16,17,16.80
2016,04,29,16,18,16.90
2016,04,29,16,19,16.90
2016,04,29,16,20,16.90
2016,04,29,16,21,16.90
2016,04,29,16,22,16.90
2016,04,29,16,23,16.80
2016,04,29,16,24,16.80
2016,04,29,16,25,16.70
2016,04,29,16,26,16.70
2016,04,29,16,27,16.60
2016,04,29,16,28,16.60
2016,04,29,16,29,16.50
2016,04,29,16,30,16.50
2016,04,29,16,31,16.40
2016,04,29,16,32,16.30
2016,04,29,16,33,16.20
2016,04,29,16,34,16.20
2016,04,29,16,35,16.20
2016,04,29,16,36,16.20
2016,04,29,16,37,16.10
2016,04,29,16,38,16.10
2016,04,29,16,39,16.10
2016,04,29,16,40,16.00
2016,04,29,16,41,16.00
2016,04,29,16,42,15.90
2016,04,29,16,43,15.90
2016,04,29,16,44,15.90
2016,04,29,16,45,16.00
2016,04,29,16,46,16.00
2016,04,29,16,47,16.10
2016,04,29,16,48,16.20
2016,04,29,16,49,16.20
2016,04,29,16,50,16.20
2016,04,29,16,51,16.30
2016,04,29,16,52,16.30
2016,04,29,16,53,16.20
2016,04,29,16,54,16.20
2016,04,29,16,55,16.20
2016,04,29,16,56,16.20
2016,04,29,16,57,16.20
2016,04,29,16,58,16.10
2016,04,29,16,59,16.10
2016,04,29,17,00,16.10
2016,04,29,17,01,16.10
2016,04,29,17,02,16.10
2016,04,29,17,03,16.20
2016,04,29,17,04,16.20
2016,04,29,17,05,16.20
2016,04,29,17,06,16.10
2016,04,29,17,07,16.00
2016,04,29,17,08,15.90
2016,04,29,17,09,15.90
2016,04,29,17,10,15.90
2016,04,29,17,11,15.90
2016,04,29,17,12,15.90
2016,04,29,17,13,16.00
2016,04,29,17,14,15.90
2016,04,29,17,15,15.80
2016,04,29,17,16,15.70
2016,04,29,17,17,15.70
2016,04,29,17,18,15.60
2016,04,29,17,19,15.50